Weather History for Devils Lake, ND

Change the Weather History Date:

Friday, December 28, 2012

  Actual Average Record
Temperature  
Mean Temperature 4 °F -  
Max Temperature 12 °F 18 °F 46 °F (1980)
Min Temperature -5 °F 0 °F -27 °F (1993)
Degree Days  
Heating Degree Days 62    
Moisture  
Dew Point -6 °F    
Average Humidity 59    
Maximum Humidity 92    
Minimum Humidity 20    
Precipitation  
Precipitation 0.00 in - - ()
Sea Level Pressure  
Sea Level Pressure 29.99 in    
Wind  
Wind Speed 7 mph (WSW)    
Max Wind Speed 14 mph    
Max Gust Speed -    
Visibility 9 miles    
Events      
Averages and records for this station are not official NWS values.
T = Trace of Precipitation, MM = Missing Value Source: NWS Daily Summary

Daily Weather History Graph

Daily Weather History Graph

Search for Another Location

Airport:

Trip Planner

Search our weather history database for the weather conditions in past years. The results will help you decide how hot, cold, wet, or windy it might be!

Date:

Astronomy

Dec. 28, 2012 Rise Set
Actual Time 8:25 AM CST 4:49 PM CST
Civil Twilight 7:49 AM CST 5:25 PM CST
Nautical Twilight 7:09 AM CST 6:05 PM CST
Astronomical Twilight 6:31 AM CST 6:43 PM CST
Moon 5:32 PM CST (12/28) 8:16 AM CST (12/28)
Length of Visible Light 9h 36m
Length of Day
8h 23m
Full, 100% of the Moon is Illuminated
Dec 28
Full
Jan 4
Last Quarter
Jan 11
New
Jan 18
First Quarter
Jan 26
Full

Hourly Weather History & Observations

Time (CST) Temp. Windchill Dew Point Humidity Pressure Visibility Wind Dir Wind Speed Gust Speed Precip Events Conditions
12:15 AM 8.6 °F -1.3 °F 6.8 °F 92% 30.07 in 4.0 mi South 5.8 mph - N/A   Overcast
12:35 AM 8.6 °F 0.1 °F 6.8 °F 92% 30.06 in 6.0 mi South 4.6 mph - N/A   Overcast
12:55 AM 10.4 °F -1.5 °F 6.8 °F 85% 30.06 in 3.0 mi SSW 8.1 mph - N/A   Overcast
1:15 AM 10.4 °F -2.4 °F 6.8 °F 85% 30.06 in 4.0 mi SSW 9.2 mph - N/A   Overcast
1:35 AM 10.4 °F -2.4 °F 6.8 °F 85% 30.05 in 3.0 mi SSW 9.2 mph - N/A   Overcast
1:55 AM 10.4 °F -1.5 °F 6.8 °F 85% 30.05 in 5.0 mi SW 8.1 mph - N/A   Overcast
2:15 AM 10.4 °F -1.5 °F 6.8 °F 85% 30.04 in 4.0 mi SW 8.1 mph - N/A   Overcast
2:35 AM 10.4 °F -0.4 °F 6.8 °F 85% 30.04 in 4.0 mi SW 6.9 mph - N/A   Overcast
2:55 AM 10.4 °F -2.4 °F 6.8 °F 85% 30.04 in 4.0 mi SW 9.2 mph - N/A   Overcast
3:15 AM 8.6 °F -3.7 °F 5.0 °F 85% 30.04 in 5.0 mi SW 8.1 mph - N/A   Mostly Cloudy
3:35 AM 8.6 °F -3.7 °F 3.2 °F 79% 30.03 in 10.0 mi SW 8.1 mph - N/A   Partly Cloudy
3:55 AM 8.6 °F -1.3 °F 3.2 °F 79% 30.03 in 10.0 mi SW 5.8 mph - N/A   Clear
4:15 AM 6.8 °F -3.5 °F 1.4 °F 79% 30.03 in 7.0 mi SW 5.8 mph - N/A   Partly Cloudy
4:35 AM 6.8 °F -2.0 °F 3.2 °F 85% 30.02 in 9.0 mi SSW 4.6 mph - N/A   Scattered Clouds
4:55 AM 6.8 °F -2.0 °F 1.4 °F 79% 30.02 in 7.0 mi SSW 4.6 mph - N/A   Mostly Cloudy
5:15 AM 3.2 °F - -0.4 °F 85% 30.02 in 5.0 mi Calm Calm - N/A   Scattered Clouds
5:35 AM 5.0 °F -4.1 °F 1.4 °F 85% 30.01 in 9.0 mi South 4.6 mph - N/A   Clear
5:55 AM 3.2 °F -4.2 °F -0.4 °F 85% 30.01 in 7.0 mi SSW 3.5 mph - N/A   Clear
6:15 AM 5.0 °F -6.9 °F -7.6 °F 56% 30.02 in 10.0 mi SW 6.9 mph - N/A   Partly Cloudy
6:35 AM 5.0 °F -6.9 °F -14.8 °F 40% 30.01 in 10.0 mi SSW 6.9 mph - N/A   Mostly Cloudy
6:55 AM 5.0 °F -5.6 °F -9.4 °F 52% 30.01 in 10.0 mi SSW 5.8 mph - N/A   Mostly Cloudy
7:15 AM 5.0 °F -2.1 °F 3.2 °F 92% 30.01 in 10.0 mi SW 3.5 mph - N/A   Mostly Cloudy
7:35 AM 6.8 °F - -27.4 °F 20% 30.01 in 10.0 mi Calm Calm - N/A   Overcast
7:55 AM 6.8 °F -0.1 °F -16.6 °F 34% 30.01 in 7.0 mi SW 3.5 mph - N/A   Mostly Cloudy
8:15 AM 6.8 °F -3.5 °F -11.2 °F 44% 30.01 in 10.0 mi WSW 5.8 mph - N/A   Scattered Clouds
8:35 AM 8.6 °F 0.1 °F -7.6 °F 48% 30.01 in 10.0 mi SW 4.6 mph - N/A   Mostly Cloudy
8:55 AM 8.6 °F -2.6 °F -5.8 °F 52% 30.01 in 10.0 mi WSW 6.9 mph - N/A   Overcast
9:15 AM 8.6 °F -3.7 °F -2.2 °F 62% 30.01 in 9.0 mi SW 8.1 mph - N/A   Mostly Cloudy
9:35 AM 8.6 °F -2.6 °F 1.4 °F 73% 30.01 in 10.0 mi SW 6.9 mph - N/A   Scattered Clouds
9:55 AM 8.6 °F 0.1 °F 1.4 °F 73% 30.01 in 10.0 mi SW 4.6 mph - N/A   Scattered Clouds
10:15 AM 8.6 °F -3.7 °F -20.2 °F 26% 30.02 in 10.0 mi WSW 8.1 mph - N/A   Scattered Clouds
10:35 AM 8.6 °F -3.7 °F -20.2 °F 26% 30.01 in 10.0 mi SW 8.1 mph - N/A   Scattered Clouds
10:55 AM 8.6 °F -3.7 °F -11.2 °F 40% 30.01 in 10.0 mi SW 8.1 mph - N/A   Mostly Cloudy
11:15 AM 10.4 °F -0.4 °F -7.6 °F 44% 30.01 in 10.0 mi SW 6.9 mph - N/A   Overcast
11:35 AM 10.4 °F -1.5 °F -4.0 °F 52% 30.00 in 10.0 mi SW 8.1 mph - N/A   Overcast
11:55 AM 10.4 °F -1.5 °F -0.4 °F 62% 29.98 in 10.0 mi SSW 8.1 mph - N/A   Overcast
12:15 PM 10.4 °F -1.5 °F -20.2 °F 24% 29.98 in 10.0 mi SSW 8.1 mph - N/A   Overcast
12:35 PM 10.4 °F -1.5 °F -16.6 °F 29% 29.98 in 10.0 mi WSW 8.1 mph - N/A   Mostly Cloudy
12:55 PM 12.2 °F 2.9 °F -7.6 °F 41% 29.97 in 10.0 mi SW 5.8 mph - N/A   Scattered Clouds
1:15 PM 10.4 °F - -5.8 °F 48% 29.97 in 10.0 mi North - - N/A   Clear
1:35 PM 12.2 °F 2.9 °F -0.4 °F 57% 29.96 in 10.0 mi SW 5.8 mph - N/A   Partly Cloudy
1:55 PM 12.2 °F 0.7 °F 1.4 °F 62% 29.96 in 10.0 mi SW 8.1 mph - N/A   Mostly Cloudy
2:15 PM 12.2 °F 1.7 °F -18.4 °F 24% 29.95 in 10.0 mi SW 6.9 mph - N/A   Mostly Cloudy
2:35 PM 12.2 °F 0.7 °F -16.6 °F 27% 29.95 in 10.0 mi SW 8.1 mph - N/A   Mostly Cloudy
2:55 PM 12.2 °F 0.7 °F -7.6 °F 41% 29.95 in 10.0 mi SW 8.1 mph - N/A   Mostly Cloudy
3:15 PM 12.2 °F 0.7 °F -4.0 °F 48% 29.95 in 10.0 mi SW 8.1 mph - N/A   Mostly Cloudy
3:35 PM 12.2 °F -0.2 °F -0.4 °F 57% 29.95 in 10.0 mi WSW 9.2 mph - N/A   Mostly Cloudy
3:55 PM 12.2 °F -0.2 °F -20.2 °F 22% 29.95 in 10.0 mi WSW 9.2 mph - N/A   Scattered Clouds
4:15 PM 12.2 °F 2.9 °F -13.0 °F 32% 29.96 in 8.0 mi WSW 5.8 mph - N/A   Mostly Cloudy
4:35 PM 12.2 °F 1.7 °F -5.8 °F 45% 29.96 in 9.0 mi WSW 6.9 mph - N/A   Scattered Clouds
4:55 PM 12.2 °F 1.7 °F -2.2 °F 53% 29.96 in 10.0 mi West 6.9 mph - N/A   Partly Cloudy
5:15 PM 12.2 °F 1.7 °F -16.6 °F 27% 29.96 in 10.0 mi West 6.9 mph - N/A   Mostly Cloudy
5:35 PM 12.2 °F 0.7 °F -14.8 °F 29% 29.96 in 10.0 mi West 8.1 mph - N/A   Mostly Cloudy
5:55 PM 12.2 °F -0.2 °F -5.8 °F 45% 29.96 in 6.0 mi West 9.2 mph - N/A   Overcast
6:15 PM 12.2 °F -1.8 °F - N/A% 29.96 in 10.0 mi West 11.5 mph - N/A   Overcast
6:35 PM 12.2 °F -1.8 °F -7.6 °F 41% 29.96 in 10.0 mi West 11.5 mph - N/A   Overcast
6:55 PM 10.4 °F -1.5 °F 3.2 °F 73% 29.97 in 10.0 mi West 8.1 mph - N/A   Mostly Cloudy
7:15 PM 10.4 °F -2.4 °F 5.0 °F 79% 29.96 in 10.0 mi West 9.2 mph - N/A   Overcast
7:35 PM 6.8 °F -7.8 °F 1.4 °F 79% 29.96 in 10.0 mi West 10.4 mph - N/A   Scattered Clouds
7:55 PM 5.0 °F -10.8 °F -0.4 °F 78% 29.96 in 10.0 mi West 11.5 mph - N/A   Scattered Clouds
8:15 PM 3.2 °F -13.1 °F -0.4 °F 85% 29.96 in 10.0 mi West 11.5 mph - N/A   Partly Cloudy
8:35 PM 3.2 °F -11.3 °F 1.4 °F 92% 29.95 in 10.0 mi West 9.2 mph - N/A   Clear
8:55 PM 1.4 °F -16.1 °F -11.2 °F 56% 29.95 in 10.0 mi West 12.7 mph - N/A   Clear
9:15 PM -0.4 °F -15.7 °F -25.6 °F 30% 29.95 in 10.0 mi West 9.2 mph - N/A   Clear
9:35 PM -0.4 °F -17.6 °F -18.4 °F 43% 29.95 in 10.0 mi West 11.5 mph - N/A   Clear
9:55 PM -0.4 °F -19.2 °F -14.8 °F 51% 29.95 in 10.0 mi WNW 13.8 mph - N/A   Clear
10:15 PM -0.4 °F -17.6 °F -11.2 °F 60% 29.95 in 10.0 mi West 11.5 mph - N/A   Clear
10:35 PM -2.2 °F -21.5 °F -13.0 °F 60% 29.95 in 10.0 mi West 13.8 mph - N/A   Clear
10:55 PM -2.2 °F -18.9 °F -11.2 °F 66% 29.96 in 10.0 mi West 10.4 mph - N/A   Clear
11:15 PM -4.0 °F -19.0 °F -14.8 °F 60% 29.96 in 10.0 mi West 8.1 mph - N/A   Clear
11:35 PM -5.8 °F -24.4 °F -11.2 °F 77% 29.96 in 10.0 mi West 11.5 mph - N/A   Clear
11:55 PM -5.8 °F -24.4 °F -16.6 °F 60% 29.96 in 10.0 mi West 11.5 mph - N/A   Clear